EW0395 Weather Reports


Display with metric or nautical units.
time (UTC)temp
F
wind
direction
speed
MPH
gust
MPH
rain 1hr
in
rain 24hr
in
rain mn
in
humidity
%
barometer
mb
20260509194532 45 0 0.0 1.0 0.06 0.35 0.35 94 1011.8
20260509193034 45 0 0.0 1.0 0.05 0.33 0.33 95 1011.9
20260509191538 45 0 0.0 1.0 0.04 0.31 0.31 94 1012.0
20260509190030 45 0 0.0 1.0 0.04 0.30 0.30 94 1012.1
20260509184533 45 326 0.0 2.0 0.06 0.29 0.29 93 1012.1
20260509183033 45 0 1.0 4.0 0.08 0.28 0.28 94 1012.3
20260509181548 45 0 0.0 1.0 0.09 0.27 0.27 94 1012.3
20260509180032 45 36 0.0 1.0 0.09 0.25 0.25 93 1012.5
20260509174532 45 0 0.0 3.0 0.08 0.23 0.23 93 1012.7
20260509173034 45 196 0.0 3.0 0.05 0.19 0.19 92 1012.7
20260509171537 45 144 1.0 4.0 0.05 0.18 0.18 92 1012.8
20260509170042 45 0 0.0 1.0 0.05 0.16 0.16 92 1012.9
20260509164537 44 144 1.0 2.0 0.06 0.15 0.15 92 1012.9
20260509163034 44 84 1.0 4.0 0.07 0.14 0.14 92 1013.1
20260509161534 44 236 0.0 2.0 0.07 0.13 0.13 93 1013.1
20260509160036 44 0 1.0 2.0 0.07 0.11 0.11 92 1013.4
20260509154542 44 0 0.0 1.0 0.06 0.09 0.09 93 1013.5
20260509153039 44 0 0.0 6.0 0.05 0.07 0.07 91 1013.7
20260509151534 45 0 0.0 3.0 0.05 0.06 0.06 90 1013.7
20260509150031 45 76 0.0 1.0 0.04 0.04 0.04 89 1013.6
20260509144534 46 0 0.0 1.0 0.03 0.03 0.03 89 1013.6
20260509143036 46 0 0.0 0.0 0.02 0.02 0.02 89 1013.5
20260509141532 46 0 0.0 1.0 0.00 0.00 0.00 85 1013.6
20260509140039 47 0 0.0 4.0 0.00 0.00 0.00 78 1013.4
20260509134539 48 165 1.0 3.0 0.00 0.00 0.00 71 1013.4
20260509133034 49 0 0.0 2.0 0.00 0.00 0.00 64 1013.2
20260509131540 50 214 1.0 3.0 0.00 0.00 0.00 61 1013.3
20260509130033 48 0 0.0 5.0 0.00 0.00 0.00 61 1013.3
20260509124534 48 0 0.0 2.0 0.00 0.00 0.00 59 1013.5
20260509123033 48 0 0.0 1.0 0.00 0.00 0.00 66 1013.7
20260509121537 44 0 0.0 1.0 0.00 0.00 0.00 75 1013.8
20260509120038 42 0 0.0 1.0 0.00 0.00 0.00 85 1013.7
20260509114534 41 0 0.0 0.0 0.00 0.00 0.00 91 1013.7
20260509113032 38 0 0.0 0.0 0.00 0.00 0.00 91 1013.8
20260509111534 36 0 0.0 0.0 0.00 0.00 0.00 93 1013.8
20260509110035 35 0 0.0 2.0 0.00 0.00 0.00 95 1013.8
20260509104533 33 0 0.0 0.0 0.00 0.00 0.00 95 1013.8
20260509103034 32 0 0.0 0.0 0.00 0.00 0.00 95 1013.8
20260509101543 31 0 0.0 0.0 0.00 0.00 0.00 96 1013.7
20260509100032 29 0 0.0 0.0 0.00 0.00 0.00 95 1013.7
20260509094531 29 0 0.0 0.0 0.00 0.00 0.00 95 1013.3
20260509093035 28 0 0.0 0.0 0.00 0.00 0.00 94 1013.2
20260509091535 29 0 0.0 0.0 0.00 0.00 0.00 93 1013.0
20260509090037 29 0 0.0 0.0 0.00 0.00 0.00 94 1012.8
20260509084533 29 0 0.0 0.0 0.00 0.00 0.00 94 1012.7
20260509083030 29 0 0.0 0.0 0.00 0.00 0.00 94 1012.9
20260509081535 29 0 0.0 0.0 0.00 0.00 0.00 94 1012.8
20260509080037 29 0 0.0 0.0 0.00 0.00 0.00 94 1012.8
20260509074532 29 0 0.0 0.0 0.00 0.00 0.00 94 1012.8
20260509073102 29 0 0.0 0.0 0.00 0.00 0.00 93 1012.7
20260509071535 30 0 0.0 0.0 0.00 0.00 0.00 92 1013.0
20260509070034 30 0 0.0 0.0 0.00 0.00 0.00 92 1013.1
20260509064534 30 0 0.0 0.0 0.00 0.00 0.00 92 1013.1
20260509063032 30 0 0.0 0.0 0.00 0.00 0.00 92 1013.3
20260509061534 31 0 0.0 0.0 0.00 0.00 0.00 91 1013.3
20260509060045 31 0 0.0 0.0 0.00 0.00 0.00 90 1013.4
20260509054535 32 136 0.0 1.0 0.00 0.00 0.00 90 1013.4
20260509053035 31 0 0.0 0.0 0.00 0.00 0.00 90 1013.3
20260509051533 32 0 0.0 0.0 0.00 0.00 0.00 89 1013.3
20260509050031 32 0 0.0 0.0 0.00 0.00 0.00 88 1013.0
20260509044536 33 0 0.0 0.0 0.00 0.00 0.00 88 1013.0
20260509043036 33 0 0.0 1.0 0.00 0.00 0.00 88 1012.9
20260509041532 33 0 0.0 1.0 0.00 0.00 0.00 87 1012.9
20260509040029 34 0 0.0 1.0 0.00 0.00 0.00 87 1013.0
20260509034545 34 0 0.0 0.0 0.00 0.00 0.00 86 1012.8
20260509033031 35 0 0.0 1.0 0.00 0.00 0.00 85 1012.9
20260509031532 35 0 0.0 1.0 0.00 0.00 0.00 84 1012.6
20260509030030 36 0 0.0 1.0 0.00 0.00 0.00 82 1012.6
20260509024533 37 0 0.0 1.0 0.00 0.00 0.00 81 1012.5
20260509023032 38 0 0.0 0.0 0.00 0.00 0.00 80 1012.5
20260509021535 38 0 0.0 0.0 0.00 0.00 0.00 79 1012.4
20260509020038 39 0 0.0 0.0 0.00 0.00 0.00 77 1012.2
20260509014532 40 0 0.0 1.0 0.00 0.00 0.00 75 1012.0
20260509013036 41 0 0.0 1.0 0.00 0.00 0.00 74 1011.8
20260509011540 41 0 0.0 0.0 0.00 0.00 0.00 71 1011.5
20260509010039 42 0 0.0 0.0 0.00 0.00 0.00 70 1011.2
20260509004540 43 0 0.0 0.0 0.00 0.00 0.00 66 1011.0
20260509003031 44 0 0.0 0.0 0.00 0.00 0.00 64 1010.7
20260509001532 45 0 0.0 0.0 0.00 0.00 0.00 64 1010.6
20260509000032 46 225 0.0 1.0 0.00 0.00 0.00 63 1010.4
20260508234532 46 215 0.0 1.0 0.00 0.00 0.00 62 1010.2
20260508233032 47 241 0.0 1.0 0.00 0.00 0.00 60 1010.0
20260508231534 47 265 0.0 4.0 0.00 0.00 0.00 59 1009.9
20260508230036 48 200 1.0 3.0 0.00 0.00 0.00 56 1009.9
20260508224534 49 0 0.0 1.0 0.00 0.00 0.00 54 1009.7
20260508223041 49 0 0.0 2.0 0.00 0.00 0.00 52 1009.6
20260508221531 51 207 0.0 2.0 0.00 0.00 0.00 47 1009.6
20260508220033 52 280 1.0 3.0 0.00 0.00 0.00 40 1009.4
20260508214538 51 309 1.0 3.0 0.00 0.00 0.00 40 1009.2
20260508213034 51 240 1.0 3.0 0.00 0.00 0.00 40 1009.3
20260508211534 51 153 1.0 4.0 0.00 0.00 0.00 39 1009.2
20260508210030 51 0 0.0 1.0 0.00 0.00 0.00 39 1009.0
20260508204541 52 218 0.0 2.0 0.00 0.00 0.00 39 1008.9
20260508203031 52 239 0.0 2.0 0.00 0.00 0.00 37 1008.7
20260508201532 53 267 1.0 5.0 0.00 0.00 0.00 35 1008.7
20260508200030 53 262 1.0 4.0 0.00 0.00 0.00 37 1008.8